Regional Weather Roundup
Issued by NWS

Home | Current Version | Previous Version | Graphics & Text | Print | Product List | Glossary On
Versions: 1 2 3 4 5 6 7 8 9 10 11 12 13 14 15 16 17 18 19 20 21 22 23 24 25 26 27 28 29 30 31 32 33 34 35 36 37 38 39 40 41 42 43 44 45 46 47 48 49 50
000
ASUS43 KIND 240959
RWRIN

WEATHER ROUNDUP FOR INDIANA
NATIONAL WEATHER SERVICE INDIANAPOLIS IN
600 AM EDT MON APR 24 2017

NOTE: "FAIR" INDICATES FEW OR NO CLOUDS BELOW 12,000 FEET WITH NO
SIGNIFICANT WEATHER AND/OR OBSTRUCTIONS TO VISIBILITY.

* - STATION DOES NOT REPORT WEATHER SUCH AS PRECIPITATION OR FOG.

+ - STATION NOT QUALITY CONTROLLED BY THE NATIONAL WEATHER SERVICE.
    USE DATA WITH CAUTION...ESPECIALLY DEWPOINT AND RELATIVE
    HUMIDITY OBSERVATIONS.

INZ001>003-010>013-019-020-241100-
NORTHWEST INDIANA

CITY           SKY/WX    TMP DP  RH WIND       PRES   REMARKS
GARY /AIRPORT/ PTCLDY    43  43 100 CALM      30.02F
KNOX *+        CLEAR     36  21  55 N3        30.00S
MONTICELLO +   CLEAR     48  32  54 NE5       29.99S

$$

LMZ046-743>745-241100-
SOUTHERN LAKE MICHIGAN

STATION/POSITION TIME  TEMP    WIND        PRES    WAVE
                       AIR SEA DIR/SP/G            HT
                 (UTC) (F)     (DEG/KT/KT) (MB)    (FT)
BURNS HARBOR     0940   46      20/  5/  6 1016.9S
MICHIGAN CITY    0930   46      20/  6/  6   N/A

$$

INZ004-005-014>016-021>024-241100-
NORTH CENTRAL INDIANA

CITY           SKY/WX    TMP DP  RH WIND       PRES   REMARKS
GOSHEN         CLEAR     41  33  73 CALM      30.01F
SOUTH BEND     CLEAR     38  32  79 CALM      30.02S

$$

INZ006>009-017-018-025>027-241100-
NORTHEAST INDIANA

CITY           SKY/WX    TMP DP  RH WIND       PRES   REMARKS
ANGOLA *+      CLEAR     39  39 100 CALM      30.02F
FORT WAYNE     PTCLDY    41  30  65 N5        30.02R
KENDALLVILLE + CLEAR     42  32  69 E5        30.03S

$$

INZ028-029-035-036-043>045-051>053-241100-
WEST CENTRAL INDIANA

CITY           SKY/WX    TMP DP  RH WIND       PRES   REMARKS
CRAWFORDSVL +  CLEAR     42  31  67 NE5       29.97F
GREENCASTLE +  CLEAR     43  32  65 N7        29.96F
LAFAYETTE      CLEAR     40  37  89 CALM      29.99S
TERRE HAUTE    CLEAR     43  32  65 N7        29.96S

$$

INZ030>032-037>040-046>048-054>057-064-065-241100-
CENTRAL INDIANA

CITY           SKY/WX    TMP DP  RH WIND       PRES   REMARKS
INDIANAPOLIS   CLEAR     48  34  58 NE12      29.95F
-EAGLE CREEK   CLEAR     51  32  48 NE5       29.96S
KOKOMO +       CLEAR     39  30  70 N7        30.00F
SHELBYVILLE    CLEAR     47  33  58 NE6       29.94F

$$

INZ033-034-041-042-049-050-058-059-241100-
EAST CENTRAL INDIANA

CITY           SKY/WX    TMP DP  RH WIND       PRES   REMARKS
MUNCIE         CLEAR     40  31  70 NE3       29.98S
RICHMOND +     CLEAR     43  34  70 NE9       29.96S

$$

INZ060-061-067>069-081>083-085>088-241100-
SOUTHWEST INDIANA

CITY           SKY/WX    TMP DP  RH WIND       PRES   REMARKS
EVANSVILLE     CLEAR     53  36  52 NE12      29.89S
HUNTINGBURG *+ CLEAR     47  39  74 N6        29.89F

$$

INZ062-063-066-070>080-084-089>092-241100-
SOUTH CENTRAL AND SOUTHEAST INDIANA

CITY           SKY/WX    TMP DP  RH WIND       PRES   REMARKS
BLOOMINGTON    CLEAR     49  33  54 NE5       29.93F
MADISON *+     CLEAR     50  36  57 N8        29.91F

$$




USA.gov is the U.S. government's official web portal to all federal, state and local government web resources and services.